星链-34843 (STARLINK-34843)

导读

STARLINK-34785是美国于2025年8月28日发射的星链系列卫星,隶属于SpaceX公司打造的星链星座项目。星链系统旨在为全球提供覆盖广泛的高速互联网服务,尤其聚焦偏远地区与网络基础设施薄弱区域的互联需求,该卫星发射后将进一步扩充星链星座的在轨规模,提升全球网络覆盖能力与服务稳定性。

Basic Information
目录编号:
65354
目录名称:
STARLINK-34785
国际标识:
2025-190D
轨道中心:
EARTH
卫星名称:
星链-34843
卫星全名:
星链-34843 (STARLINK-34843)
卫星状态:
在轨 (已飞行381 天)
发射日期:
2025-08-28 UTC
国别 :
美国 (US)
星等 :
--
This satellite is enrolled in the Space Conjunction Data Service (SCDS) and the current flight risk assessment level is: No High Risk
Orbit Information
数据来源 国际轨道数据
星历时间: 2026-09-12T02:49:05+0800
1天前
查看轨道信息
半长轴: 6840.806km
偏心率: 0.0001326
轨道倾角: 53.160°
近地点辐角 89.350°
升交点赤经 20.491°
平近点角 270.765°
近地点: 461.761km
远地点: 463.577km
周期: 93.847分钟
每日圈数: 15.344116
Detailed Information
固有亮度:
5
最大亮度:
2.5
卫星平台:
Starlink V1.0
覆盖范围:
全球
运营商:
太空探索技术公司
运营商所在国:
美国
制造商(研发单位):
太空探索技术公司
制造商所在国:
美国
使用方式:
暂无
Satellite Introduction
Starlink 计划是 SpaceX 推出的全球卫星互联网项目,通过发射低轨道卫星,为全球尤其是偏远地区提供高速、低延迟的互联网服务。自 2019 年起,Starlink 已部署数千颗卫星,旨在缩小全球数字鸿沟,推动互联网普及。该项目还为军事、航空等行业提供通信支持,带来广泛经济效益。
2D Orbit Map
3D Orbit Map
Orbit Altitude Analysis Chart
Orbit Inclination Analysis Chart
Orbit Comprehensive Analysis Chart
View Comprehensive Chart
Conjunction Data List
Event ID Objects TCA Miss Dist (km) Collision Risk Probability Collision Risk Index (CRI) Action
CDM_260913-133705-262706-535421
2026-09-13T
13:37:20+0000
2.654 km
极远距离
1.317129E-6 低风险 0.37
CDM_260913-084205-254806-535421
2026-09-13T
08:42:07+0000
2.768 km
极远距离
5.00868E-7 极低风险 0.29
Miss Distance Evolution Trend with All Objects
Collision Probability Evolution Trend with All Objects